Regional Weather Roundup
Issued by NWS

Home | Current Version | Previous Version | Graphics & Text | Print | Product List | Glossary On
Versions: 1 2 3 4 5 6 7 8 9 10 11 12 13 14 15 16 17 18 19 20 21 22 23 24 25 26 27 28 29 30 31 32 33 34 35 36 37 38 39 40 41 42 43 44 45 46 47 48 49 50
000
ASUS43 KBIS 051810
RWRND

NORTH DAKOTA REGIONAL WEATHER ROUNDUP
NATIONAL WEATHER SERVICE BISMARCK ND
1200 PM CST THU MAR 05 2015

NOTE: "FAIR" INDICATES FEW OR NO CLOUDS BELOW 12,000 FEET WITH NO
SIGNIFICANT WEATHER AND/OR OBSTRUCTIONS TO VISIBILITY.


NDZ001>003-009>011-017-051900-
NORTHWEST NORTH DAKOTA

CITY           SKY/WX    TMP DP  RH WIND       PRES   REMARKS
WILLISTON        N/A     26   8  46 W12       30.06S WCI  16
MINOT          FAIR      17   4  56 S9        30.05F WCI   6
MINOT AFB      SUNNY     19   8  61 SW8       30.05F WCI   9
$$

NDZ018>021-031>035-040>046-051900-
SOUTHWEST NORTH DAKOTA

CITY           SKY/WX    TMP DP  RH WIND       PRES   REMARKS
BISMARCK       SUNNY     26   4  38 S14       30.13F WCI  14
6HR MIN TEMP:  -6; 6HR MAX TEMP:  26;

DICKINSON      SUNNY     34   9  35 W14       30.02S
GARRISON         N/A     17   7  64 S7        30.07F WCI   8
6HR MIN TEMP:  -9; 6HR MAX TEMP:  17;

HETTINGER ARPT MOSUNNY   36   9  32 W18G26    30.06F
$$

NDZ004>008-012>016-024-026-027-054-051900-
NORTHEAST NORTH DAKOTA

CITY           SKY/WX    TMP DP  RH WIND       PRES   REMARKS
GRAND FORKS    FAIR      14   3  61 S18       30.26F WCI  -3
GRND FRKS AFB  SUNNY     17   1  48 S14       30.23F WCI   3
DEVILS LAKE    FAIR      12   1  62 SW9       30.14F WCI   0
$$

NDZ022-023-025-028>030-036>039-047>053-051900-
SOUTHEAST NORTH DAKOTA

CITY           SKY/WX    TMP DP  RH WIND       PRES   REMARKS
FARGO          FAIR      15  -1  49 S17       30.33F WCI  -1
6HR MIN TEMP:  -9; 6HR MAX TEMP:  15;

JAMESTOWN      FAIR      19   7  59 S16       30.18F WCI   4
$$



USA.gov is the U.S. government's official web portal to all federal, state and local government web resources and services.